This is the latest recevied weather packets stored in our database for station/object EA2MKR. If no packets are shown the sender has not sent any weather packets the latest 10 day(s).
| Time | Temp. | Humidity | Pressure | Rain* | Wind** | Luminosity | Snow |
|---|---|---|---|---|---|---|---|
| 1788106102 | 23.33° C | 70% | 954.6 hPa | 0 mm | - | - | - |
| 1788105677 | 23.33° C | 69% | 954.7 hPa | 0 mm | - | - | - |
| 1788105501 | 23.33° C | 68% | 954.4 hPa | 0 mm | - | - | - |
| 1788105077 | 23.89° C | 62% | 954.5 hPa | 0 mm | - | - | - |
| 1788104777 | 23.89° C | 62% | 954.3 hPa | 0 mm | - | - | - |
| 1788104476 | 24.44° C | 62% | 954.4 hPa | 0 mm | - | - | - |
| 1788104178 | 25° C | 62% | 954.1 hPa | 0 mm | - | - | - |
| 1788103876 | 25° C | 62% | 954.2 hPa | 0 mm | - | - | - |
| 1788103576 | 25° C | 62% | 954.2 hPa | 0 mm | - | - | - |
| 1788103276 | 25.56° C | 56% | 954 hPa | 0 mm | - | - | - |
| 1788102976 | 26.11° C | 56% | 954 hPa | 0 mm | - | - | - |
| 1788102673 | 26.11° C | 56% | 953.8 hPa | 0 mm | - | - | - |
| 1788102373 | 26.67° C | 56% | 953.9 hPa | 0 mm | - | - | - |
| 1788102197 | 27.22° C | 56% | 953.7 hPa | 0 mm | - | - | - |
| 1788101773 | 27.22° C | 55% | 953.7 hPa | 0 mm | - | - | - |
| 1788101474 | 27.78° C | 55% | 953.6 hPa | 0 mm | - | - | - |
| 1788101173 | 27.78° C | 55% | 953.6 hPa | 0 mm | - | - | - |
| 1788100872 | 27.78° C | 55% | 953.5 hPa | 0 mm | - | - | - |
| 1788100573 | 27.78° C | 55% | 953.4 hPa | 0 mm | - | - | - |
| 1788100273 | 27.78° C | 52% | 953.5 hPa | 0 mm | - | - | - |
| 1788099972 | 28.33° C | 43% | 953.4 hPa | 0 mm | - | - | - |
| 1788099672 | 27.78° C | 50% | 953.4 hPa | 0 mm | - | - | - |
| 1788099496 | 28.33° C | 49% | 953.4 hPa | 0 mm | - | - | - |
| 1788099072 | 29.44° C | 47% | 953.4 hPa | 0 mm | - | - | - |
| 1788098896 | 30° C | 31% | 953.4 hPa | 0 mm | - | - | - |
* Rain latest hour (hover to see other rain measurements)
** Current wind speed in m/s (hover to see current wind gust speed)